STARLINK-11309 [DTC]

Last updated on Mon Oct 21 2024 00:02:04 GMT+0000 (Coordinated Universal Time)

1 61202U 24171C 24294.56769053 -.00005436 00000+0 -29262-4 0 9992 2 61202 53.1540 147.0738 0001270 66.8791 293.2363 15.76710423 5052
UTC large
Height (km)
Speed (km/s)
/
Latitude / Longitude
Inclination (degrees)
Orbital Period (minutes)
Azimuth
Elevation
Range (km)
Doppler Factor

Next 0 passes for location: London (51.5072 / 0.1276)

Sorry there are no passes over London.